SDG096 LIMJ-LICT

Flight info

Callsign SDG096
Flight time 1h 20m
Altitude 33000
Route UNITA L50 PEPIX M727 GIANO L12 PAL
Aircraft A321/M-SDE3FGHIRWY/C

Departure

Time 2026-05-08 12:41
Airport Genoa Cristoforo Colombo Airport (LIMJ)

Arrival

Time 2026-05-08 14:01
Airport Vincenzo Florio Airport Trapani-Birgi (LICT)
Time Latitude Longitude Altitude Speed Heading
2026-05-08 12:34 44.41446 8.84827 21 ft 0 kts 106°
2026-05-08 12:35 44.41445 8.84832 21 ft 0 kts 106°
2026-05-08 12:35 44.41443 8.84844 21 ft 2 kts 106°
2026-05-08 12:35 44.41436 8.84875 21 ft 4 kts 106°
2026-05-08 12:36 44.41423 8.84920 21 ft 3 kts 155°
2026-05-08 12:36 44.41378 8.84905 20 ft 8 kts 193°
2026-05-08 12:36 44.41338 8.84900 19 ft 0 kts 181°
2026-05-08 12:36 44.41335 8.84900 19 ft 2 kts 178°
2026-05-08 12:37 44.41295 8.84904 18 ft 7 kts 173°
2026-05-08 12:37 44.41229 8.84916 17 ft 10 kts 175°
2026-05-08 12:37 44.41147 8.84895 15 ft 9 kts 211°
2026-05-08 12:37 44.41083 8.84841 14 ft 9 kts 178°
2026-05-08 12:38 44.41055 8.84925 14 ft 10 kts 109°
2026-05-08 12:38 44.41032 8.85038 13 ft 14 kts 104°
2026-05-08 12:38 44.41001 8.85209 12 ft 19 kts 103°
2026-05-08 12:38 44.40970 8.85397 11 ft 20 kts 102°
2026-05-08 12:39 44.40926 8.85594 9 ft 21 kts 111°
2026-05-08 12:39 44.40876 8.85788 9 ft 21 kts 104°
2026-05-08 12:39 44.40870 8.85914 9 ft 11 kts 93°
2026-05-08 12:39 44.40879 8.86034 9 ft 10 kts 96°
2026-05-08 12:40 44.40836 8.86030 9 ft 9 kts 259°
2026-05-08 12:40 44.40852 8.85931 9 ft 11 kts 287°
2026-05-08 12:40 44.40885 8.85765 9 ft 43 kts 286°
2026-05-08 12:40 44.41043 8.84921 14 ft 133 kts 286°
2026-05-08 12:41 44.41397 8.83379 263 ft 186 kts 290°
2026-05-08 12:41 44.41742 8.81692 1346 ft 183 kts 288°
2026-05-08 12:41 44.42080 8.80022 2338 ft 186 kts 287°
2026-05-08 12:41 44.42412 8.78252 2912 ft 195 kts 281°
2026-05-08 12:42 44.42400 8.76317 3302 ft 209 kts 248°
2026-05-08 12:42 44.41455 8.74744 3735 ft 219 kts 205°
2026-05-08 12:42 44.39996 8.74468 4314 ft 222 kts 164°
2026-05-08 12:42 44.38667 8.75550 4978 ft 223 kts 137°
2026-05-08 12:43 44.37494 8.76971 5606 ft 227 kts 141°
2026-05-08 12:43 44.36227 8.78267 6230 ft 231 kts 146°
2026-05-08 12:43 44.34871 8.79493 6865 ft 235 kts 148°
2026-05-08 12:43 44.33474 8.80683 7500 ft 238 kts 149°
2026-05-08 12:44 44.31931 8.81531 7955 ft 249 kts 174°
2026-05-08 12:44 44.30156 8.81482 8345 ft 264 kts 184°
2026-05-08 12:44 44.28286 8.81280 8711 ft 279 kts 184°
2026-05-08 12:44 44.26307 8.81105 9184 ft 290 kts 183°
2026-05-08 12:45 44.24284 8.80970 9886 ft 293 kts 182°
2026-05-08 12:45 44.22267 8.80853 10542 ft 296 kts 182°
2026-05-08 12:45 44.20171 8.80743 10876 ft 312 kts 182°
2026-05-08 12:45 44.17970 8.80631 11188 ft 327 kts 182°
2026-05-08 12:46 44.15631 8.80559 11480 ft 343 kts 176°
2026-05-08 12:46 44.13258 8.81268 11754 ft 358 kts 158°
2026-05-08 12:46 44.11086 8.83067 12024 ft 373 kts 142°
2026-05-08 12:46 44.09070 8.85414 12298 ft 388 kts 140°
2026-05-08 12:47 44.06973 8.87921 12627 ft 401 kts 140°
2026-05-08 12:47 44.04845 8.90451 13235 ft 405 kts 140°
2026-05-08 12:47 44.02723 8.92947 13895 ft 407 kts 140°
2026-05-08 12:47 44.00542 8.95491 14498 ft 411 kts 141°
2026-05-08 12:48 43.98347 8.98041 15091 ft 415 kts 141°
2026-05-08 12:48 43.96142 9.00596 15663 ft 418 kts 141°
2026-05-08 12:48 43.93889 9.03206 16217 ft 422 kts 141°
2026-05-08 12:48 43.91653 9.05800 16768 ft 425 kts 141°
2026-05-08 12:49 43.89364 9.08451 17310 ft 428 kts 141°
2026-05-08 12:49 43.87088 9.11068 17814 ft 432 kts 141°
2026-05-08 12:49 43.84756 9.13745 18316 ft 436 kts 142°
2026-05-08 12:49 43.82426 9.16424 18834 ft 438 kts 142°
2026-05-08 12:50 43.80074 9.19132 19350 ft 441 kts 142°
2026-05-08 12:50 43.77721 9.21843 19831 ft 444 kts 142°
2026-05-08 12:50 43.75338 9.24588 20304 ft 446 kts 142°
2026-05-08 12:50 43.72954 9.27330 20783 ft 448 kts 142°
2026-05-08 12:51 43.70539 9.30104 21240 ft 451 kts 142°
2026-05-08 12:51 43.65696 9.35655 22076 ft 456 kts 142°
2026-05-08 12:51 43.63235 9.38471 22477 ft 459 kts 142°
2026-05-08 12:52 43.60798 9.41255 22863 ft 462 kts 142°
2026-05-08 12:52 43.55823 9.46930 23635 ft 467 kts 142°
2026-05-08 12:52 43.53325 9.49775 24005 ft 469 kts 143°
2026-05-08 12:53 43.50801 9.52646 24374 ft 471 kts 143°
2026-05-08 12:53 43.48271 9.55524 24733 ft 474 kts 143°
2026-05-08 12:53 43.45740 9.58400 25084 ft 476 kts 143°
2026-05-08 12:53 43.43195 9.61289 25535 ft 475 kts 143°
2026-05-08 12:54 43.40649 9.64175 26031 ft 473 kts 143°
2026-05-08 12:54 43.38117 9.67047 26488 ft 472 kts 144°
2026-05-08 12:54 43.35571 9.69941 26924 ft 471 kts 144°
2026-05-08 12:54 43.33048 9.72798 27327 ft 470 kts 144°
2026-05-08 12:55 43.30536 9.75632 27715 ft 470 kts 144°
2026-05-08 12:55 43.28009 9.78478 28090 ft 470 kts 144°
2026-05-08 12:55 43.25499 9.81301 28454 ft 469 kts 145°
2026-05-08 12:55 43.22993 9.84116 28802 ft 469 kts 145°
2026-05-08 12:56 43.20468 9.86945 29133 ft 469 kts 145°
2026-05-08 12:56 43.17958 9.89758 29446 ft 470 kts 145°
2026-05-08 12:56 43.15432 9.92596 29750 ft 470 kts 145°
2026-05-08 12:56 43.12918 9.95420 30044 ft 471 kts 145°
2026-05-08 12:57 43.10369 9.98277 30328 ft 471 kts 145°
2026-05-08 12:57 43.07823 10.01123 30589 ft 472 kts 145°
2026-05-08 12:57 43.05306 10.03932 30902 ft 471 kts 146°
2026-05-08 12:57 43.02750 10.06781 30971 ft 472 kts 146°
2026-05-08 12:58 42.97681 10.12425 30992 ft 474 kts 146°
2026-05-08 12:58 42.92538 10.18135 30998 ft 475 kts 146°
2026-05-08 12:59 42.87439 10.23772 31000 ft 477 kts 146°
2026-05-08 12:59 42.82251 10.29480 31001 ft 478 kts 146°
2026-05-08 13:00 42.77101 10.35155 31001 ft 479 kts 146°
2026-05-08 13:00 42.71750 10.40490 31001 ft 476 kts 153°
2026-05-08 13:01 42.66066 10.45017 31002 ft 474 kts 156°
2026-05-08 13:01 42.60344 10.49381 31003 ft 476 kts 156°
2026-05-08 13:02 42.54592 10.53774 31001 ft 476 kts 156°
2026-05-08 13:02 42.48819 10.58182 31002 ft 477 kts 156°
2026-05-08 13:03 42.43035 10.62590 31003 ft 477 kts 156°
2026-05-08 13:03 42.37185 10.67044 31202 ft 486 kts 157°
2026-05-08 13:04 42.34272 10.69274 31500 ft 485 kts 157°
2026-05-08 13:04 42.31421 10.71451 31886 ft 482 kts 157°
2026-05-08 13:04 42.28523 10.73657 32207 ft 481 kts 157°
2026-05-08 13:04 42.25648 10.76015 32455 ft 484 kts 153°
2026-05-08 13:05 42.22860 10.78601 32678 ft 487 kts 150°
2026-05-08 13:05 42.20175 10.81422 32901 ft 491 kts 146°
2026-05-08 13:05 42.17631 10.84440 33123 ft 494 kts 142°
2026-05-08 13:05 42.15160 10.87714 33354 ft 496 kts 140°
2026-05-08 13:06 42.12763 10.90982 33572 ft 497 kts 140°
2026-05-08 13:06 42.10317 10.94319 33784 ft 497 kts 140°
2026-05-08 13:06 42.07890 10.97616 33982 ft 498 kts 140°
2026-05-08 13:06 42.05477 11.00879 34155 ft 499 kts 140°
2026-05-08 13:07 42.03018 11.04192 34361 ft 499 kts 140°
2026-05-08 13:07 42.00584 11.07466 34609 ft 498 kts 140°
2026-05-08 13:07 41.98140 11.10753 34836 ft 498 kts 140°
2026-05-08 13:07 41.95684 11.14046 34926 ft 501 kts 140°
2026-05-08 13:08 41.90748 11.20647 34963 ft 503 kts 140°
2026-05-08 13:08 41.85767 11.27276 34969 ft 503 kts 140°
2026-05-08 13:09 41.80816 11.33855 34972 ft 503 kts 140°
2026-05-08 13:09 41.75841 11.40468 34973 ft 504 kts 140°
2026-05-08 13:10 41.70900 11.47028 34973 ft 503 kts 140°
2026-05-08 13:10 41.65929 11.53611 34973 ft 503 kts 140°
2026-05-08 13:11 41.60945 11.60196 34972 ft 503 kts 140°
2026-05-08 13:11 41.55994 11.66725 34971 ft 503 kts 141°
2026-05-08 13:12 41.51035 11.73280 34973 ft 503 kts 141°
2026-05-08 13:12 41.46062 11.79817 34973 ft 503 kts 141°
2026-05-08 13:13 41.41059 11.86364 34973 ft 503 kts 141°
2026-05-08 13:13 41.36074 11.92869 34972 ft 503 kts 141°
2026-05-08 13:14 41.31083 11.99367 34972 ft 503 kts 141°
2026-05-08 13:14 41.26102 12.05836 34973 ft 501 kts 140°
2026-05-08 13:15 41.21067 12.12129 34971 ft 496 kts 147°
2026-05-08 13:15 41.15321 12.16918 34973 ft 483 kts 162°
2026-05-08 13:16 41.09053 12.19622 34973 ft 467 kts 177°
2026-05-08 13:16 41.02675 12.20574 34973 ft 460 kts 184°
2026-05-08 13:17 40.96315 12.21233 34972 ft 461 kts 184°
2026-05-08 13:17 40.89965 12.21928 34972 ft 461 kts 183°
2026-05-08 13:18 40.83555 12.22659 34972 ft 461 kts 183°
2026-05-08 13:18 40.77156 12.23396 34972 ft 461 kts 183°
2026-05-08 13:19 40.70787 12.24131 34972 ft 461 kts 183°
2026-05-08 13:19 40.64416 12.24864 34972 ft 461 kts 183°
2026-05-08 13:20 40.58058 12.25595 34972 ft 463 kts 184°
2026-05-08 13:20 40.51661 12.26328 34972 ft 463 kts 184°
2026-05-08 13:21 40.45248 12.27064 34974 ft 463 kts 184°
2026-05-08 13:21 40.38878 12.27792 34972 ft 462 kts 184°
2026-05-08 13:22 40.32482 12.28521 34972 ft 462 kts 184°
2026-05-08 13:22 40.26120 12.29246 34973 ft 462 kts 184°
2026-05-08 13:23 40.19750 12.29969 34972 ft 462 kts 184°
2026-05-08 13:23 40.13378 12.30691 34972 ft 462 kts 184°
2026-05-08 13:24 40.06988 12.31414 34972 ft 462 kts 184°
2026-05-08 13:24 40.00583 12.32138 34972 ft 462 kts 184°
2026-05-08 13:25 39.94213 12.32858 34972 ft 462 kts 184°
2026-05-08 13:25 39.87816 12.33578 34972 ft 462 kts 184°
2026-05-08 13:26 39.81413 12.34299 34971 ft 462 kts 184°
2026-05-08 13:26 39.75024 12.35016 34972 ft 463 kts 184°
2026-05-08 13:27 39.68636 12.35731 34972 ft 463 kts 184°
2026-05-08 13:27 39.62229 12.36448 34972 ft 463 kts 184°
2026-05-08 13:28 39.55809 12.37163 34972 ft 463 kts 184°
2026-05-08 13:28 39.49404 12.37877 34972 ft 463 kts 184°
2026-05-08 13:29 39.43004 12.38589 34972 ft 463 kts 184°
2026-05-08 13:29 39.36620 12.39297 34972 ft 463 kts 184°
2026-05-08 13:30 39.30227 12.40005 34972 ft 463 kts 184°
2026-05-08 13:30 39.23818 12.40712 34660 ft 464 kts 184°
2026-05-08 13:31 39.20617 12.41066 34417 ft 464 kts 184°
2026-05-08 13:31 39.17399 12.41421 34174 ft 465 kts 184°
2026-05-08 13:31 39.14178 12.41776 33930 ft 465 kts 184°
2026-05-08 13:31 39.10992 12.42126 33693 ft 465 kts 183°
2026-05-08 13:32 39.07736 12.42484 33449 ft 466 kts 183°
2026-05-08 13:32 39.04538 12.42838 33206 ft 465 kts 183°
2026-05-08 13:32 39.01325 12.43192 32963 ft 466 kts 183°
2026-05-08 13:32 38.98128 12.43542 32690 ft 466 kts 183°
2026-05-08 13:33 38.94896 12.43897 32283 ft 467 kts 182°
2026-05-08 13:33 38.91662 12.44459 31687 ft 473 kts 176°
2026-05-08 13:33 38.88462 12.45461 30899 ft 483 kts 170°
2026-05-08 13:33 38.85297 12.46956 30203 ft 488 kts 162°
2026-05-08 13:34 38.82290 12.48911 29956 ft 482 kts 156°
2026-05-08 13:34 38.79495 12.51208 29959 ft 483 kts 152°
2026-05-08 13:34 38.73965 12.56123 29951 ft 484 kts 151°
2026-05-08 13:35 38.68442 12.61044 29949 ft 484 kts 151°
2026-05-08 13:35 38.62933 12.65909 29944 ft 483 kts 152°
2026-05-08 13:36 38.60212 12.68319 29786 ft 478 kts 152°
2026-05-08 13:36 38.57473 12.70741 29185 ft 477 kts 152°
2026-05-08 13:36 38.54733 12.73151 28292 ft 482 kts 152°
2026-05-08 13:36 38.51985 12.75558 27514 ft 482 kts 151°
2026-05-08 13:37 38.49260 12.77946 26874 ft 478 kts 151°
2026-05-08 13:37 38.46568 12.80306 25594 ft 475 kts 151°
2026-05-08 13:37 38.43817 12.82705 23609 ft 485 kts 150°
2026-05-08 13:37 38.41060 12.85104 21739 ft 487 kts 150°
2026-05-08 13:38 38.38331 12.87486 20251 ft 480 kts 150°
2026-05-08 13:38 38.35597 12.89877 18849 ft 471 kts 150°
2026-05-08 13:38 38.32963 12.92177 17737 ft 457 kts 150°
2026-05-08 13:38 38.30400 12.94412 17007 ft 436 kts 150°
2026-05-08 13:39 38.27963 12.96533 16381 ft 415 kts 151°
2026-05-08 13:39 38.25657 12.98537 15844 ft 395 kts 151°
2026-05-08 13:39 38.23437 13.00462 15374 ft 376 kts 151°
2026-05-08 13:39 38.21340 13.02278 14973 ft 357 kts 151°
2026-05-08 13:40 38.19349 13.04001 14625 ft 339 kts 152°
2026-05-08 13:40 38.17447 13.05645 14233 ft 325 kts 152°
2026-05-08 13:40 38.15580 13.07251 13614 ft 320 kts 152°
2026-05-08 13:40 38.13769 13.08807 12968 ft 316 kts 152°
2026-05-08 13:41 38.11974 13.10354 12485 ft 306 kts 151°
2026-05-08 13:41 38.10249 13.11848 12160 ft 292 kts 152°
2026-05-08 13:41 38.08613 13.13260 11637 ft 288 kts 152°
2026-05-08 13:41 38.06953 13.14685 11074 ft 285 kts 152°
2026-05-08 13:42 38.05233 13.15848 10528 ft 275 kts 166°
2026-05-08 13:42 38.03418 13.16396 9992 ft 265 kts 180°
2026-05-08 13:42 38.01626 13.16365 9443 ft 257 kts 193°
2026-05-08 13:42 37.99919 13.15819 8877 ft 251 kts 205°
2026-05-08 13:43 37.98346 13.14948 8432 ft 244 kts 208°
2026-05-08 13:43 37.96795 13.14039 8064 ft 245 kts 208°
2026-05-08 13:43 37.95292 13.13169 7967 ft 229 kts 208°
2026-05-08 13:43 37.93909 13.12366 7974 ft 216 kts 209°
2026-05-08 13:44 37.92524 13.11558 7821 ft 219 kts 208°
2026-05-08 13:44 37.91141 13.10770 7581 ft 218 kts 208°
2026-05-08 13:44 37.89770 13.09986 7412 ft 213 kts 207°
2026-05-08 13:44 37.88451 13.09244 7192 ft 203 kts 208°
2026-05-08 13:45 37.87197 13.08518 6942 ft 196 kts 208°
2026-05-08 13:45 37.85977 13.07826 6700 ft 188 kts 207°
2026-05-08 13:45 37.84809 13.07156 6453 ft 180 kts 207°
2026-05-08 13:45 37.83684 13.06519 6220 ft 173 kts 207°
2026-05-08 13:46 37.82616 13.05911 5984 ft 165 kts 207°
2026-05-08 13:46 37.81625 13.05326 5983 ft 157 kts 207°
2026-05-08 13:46 37.80626 13.04768 6008 ft 156 kts 206°
2026-05-08 13:46 37.79631 13.04215 5998 ft 157 kts 208°
2026-05-08 13:47 37.78638 13.03638 5991 ft 156 kts 208°
2026-05-08 13:47 37.77660 13.03075 5996 ft 156 kts 207°
2026-05-08 13:47 37.76664 13.02507 5998 ft 157 kts 207°
2026-05-08 13:47 37.75671 13.01956 5989 ft 157 kts 207°
2026-05-08 13:48 37.74666 13.01383 5993 ft 156 kts 207°
2026-05-08 13:48 37.73693 13.00829 5998 ft 150 kts 206°
2026-05-08 13:48 37.72742 13.00285 6005 ft 150 kts 207°
2026-05-08 13:48 37.71787 12.99747 5984 ft 150 kts 208°
2026-05-08 13:49 37.70829 12.99200 6009 ft 151 kts 207°
2026-05-08 13:49 37.69872 12.98651 5978 ft 150 kts 208°
2026-05-08 13:49 37.68955 12.98063 5992 ft 149 kts 217°
2026-05-08 13:49 37.68134 12.97228 6006 ft 151 kts 225°
2026-05-08 13:50 37.67459 12.96226 5993 ft 151 kts 235°
2026-05-08 13:50 37.66947 12.95061 5991 ft 151 kts 245°
2026-05-08 13:50 37.66626 12.93797 5991 ft 151 kts 256°
2026-05-08 13:50 37.66413 12.92497 5991 ft 151 kts 257°
2026-05-08 13:51 37.66219 12.91205 5989 ft 151 kts 264°
2026-05-08 13:51 37.66269 12.89884 5988 ft 151 kts 278°
2026-05-08 13:51 37.66603 12.88625 5976 ft 150 kts 291°
2026-05-08 13:51 37.67178 12.87523 5987 ft 151 kts 305°
2026-05-08 13:52 37.67875 12.86521 6007 ft 152 kts 308°
2026-05-08 13:52 37.68568 12.85520 5989 ft 149 kts 308°
2026-05-08 13:52 37.69247 12.84533 5997 ft 150 kts 308°
2026-05-08 13:52 37.69931 12.83551 5977 ft 145 kts 308°
2026-05-08 13:53 37.70577 12.82586 5753 ft 144 kts 305°
2026-05-08 13:53 37.71195 12.81573 5280 ft 148 kts 302°
2026-05-08 13:53 37.71809 12.80556 4865 ft 146 kts 305°
2026-05-08 13:53 37.72423 12.79542 4403 ft 146 kts 305°
2026-05-08 13:54 37.73038 12.78525 3932 ft 147 kts 306°
2026-05-08 13:54 37.73652 12.77513 3526 ft 143 kts 305°
2026-05-08 13:54 37.74263 12.76504 3540 ft 147 kts 306°
2026-05-08 13:54 37.74881 12.75486 3492 ft 145 kts 306°
2026-05-08 13:55 37.75492 12.74477 3501 ft 145 kts 306°
2026-05-08 13:55 37.76110 12.73461 3479 ft 146 kts 305°
2026-05-08 13:55 37.77346 12.71422 3484 ft 144 kts 307°
2026-05-08 13:56 37.77952 12.70424 3489 ft 144 kts 308°
2026-05-08 13:56 37.78564 12.69418 3490 ft 144 kts 308°
2026-05-08 13:56 37.79173 12.68418 3489 ft 144 kts 307°
2026-05-08 13:56 37.79792 12.67400 3450 ft 147 kts 306°
2026-05-08 13:57 37.80410 12.66382 3258 ft 145 kts 307°
2026-05-08 13:57 37.81024 12.65373 3070 ft 144 kts 307°
2026-05-08 13:57 37.81635 12.64370 2885 ft 144 kts 308°
2026-05-08 13:57 37.82250 12.63361 2695 ft 144 kts 308°
2026-05-08 13:58 37.82857 12.62365 2507 ft 143 kts 308°
2026-05-08 13:58 37.83466 12.61368 2316 ft 142 kts 306°
2026-05-08 13:58 37.84069 12.60377 2129 ft 144 kts 306°
2026-05-08 13:58 37.84679 12.59374 1940 ft 142 kts 308°
2026-05-08 13:59 37.85278 12.58394 1750 ft 141 kts 307°
2026-05-08 13:59 37.85876 12.57415 1561 ft 141 kts 306°
2026-05-08 13:59 37.86473 12.56436 1376 ft 139 kts 306°
2026-05-08 13:59 37.87066 12.55464 1187 ft 139 kts 306°
2026-05-08 14:00 37.87650 12.54505 1009 ft 139 kts 307°
2026-05-08 14:00 37.88239 12.53542 818 ft 138 kts 306°
2026-05-08 14:00 37.88825 12.52581 638 ft 137 kts 307°
2026-05-08 14:00 37.89407 12.51630 451 ft 137 kts 307°
2026-05-08 14:01 37.89993 12.50670 270 ft 137 kts 307°
2026-05-08 14:01 37.90570 12.49726 85 ft 136 kts 306°
2026-05-08 14:01 37.91077 12.48898 27 ft 70 kts 308°
2026-05-08 14:01 37.91215 12.48671 25 ft 25 kts 308°
2026-05-08 14:02 37.91312 12.48514 25 ft 0 kts 308°
2026-05-08 14:02 37.91313 12.48511 25 ft 0 kts 308°
2026-05-08 14:03 37.91340 12.48477 25 ft 11 kts 322°
2026-05-08 14:03 37.91395 12.48397 25 ft 9 kts 243°
2026-05-08 14:03 37.91345 12.48421 25 ft 12 kts 123°
2026-05-08 14:03 37.91278 12.48554 25 ft 23 kts 122°
2026-05-08 14:04 37.91167 12.48751 25 ft 31 kts 129°
2026-05-08 14:04 37.91032 12.48963 28 ft 30 kts 128°
2026-05-08 14:04 37.90910 12.49171 29 ft 28 kts 126°
2026-05-08 14:04 37.90785 12.49342 32 ft 25 kts 137°
2026-05-08 14:05 37.90635 12.49458 33 ft 24 kts 158°
2026-05-08 14:05 37.90483 12.49532 35 ft 22 kts 160°
2026-05-08 14:05 37.90328 12.49533 35 ft 22 kts 194°
2026-05-08 14:05 37.90290 12.49596 35 ft 9 kts 69°
2026-05-08 14:06 37.90284 12.49670 35 ft 0 kts 63°